SCP
-0 -0 -0 -0 -0 -0 -0 -0 -0 -0 0 0 0 0 0 -0 0 0 0 0 0 0 0 0 0 0 0 0 0 0 0 0 0 0 0 0 0 0 0 0 0 0 0 0 0
-0 -0 -0 -0 -0 -0 -0 -0 -0 -0 0 0 0 0 0 0 0 0 0 0 0 0 0 0 0 0 0 0 0 0 0 0 0 0 0 0 0 0 0 0 0 0 0 0 0
0 0 0 0 -0 -0 0 0 0 -0 0 0 -0 0 0 0 0 0 0 0 0 0 0 0 0 0 0 0 0 0 0 0 0 0 0 0 0 0 0 0 0 0 0 0 0
0 0 0 0 0 0 0 0 0 0 0 -0 -0 0 0 0 0 0 0 0 0 0 0 0 0 0 0 0 0 0 0 0 0 0 0 0 0 0 0 0 0 0 0 0 0
0 0 0 0 0 0 0 0 0 0 0 -0 0 0 0 0 0 0 0 0 0 0 0 0 0 0 0 0 0 0 0 0 0 0 0 0 0 0 0 0 0 0 0 0 0
0 0 0 0 0 0 0 0 0 0 0 -0 0 0 0 0 0 0 0 0 0 0 0 0 0 0 0 0 0 0 0 0 0 0 0 0 0 0 0 0 0 0 0 0 0
0 0 0 0 0 0 0 0 0 0 0 -0 0 0 0 0 0 0 0 0 0 0 0 0 0 0 0 0 0 0 0 0 0 0 0 0 0 0 0 0 0 0 0 0 0
0 0 0 0 0 0 0 0 0 0 0 0 0 0 0 0 0 0 0 0 0 0 0 0 0 0 0 0 0 0 0 0 0 0 0 0 0 0 0 0 0 0 0 0 0
0 0 0 0 0 0 0 0 0 0 0 0 0 0 0 0 0 0 0 0 0 0 0 0 0 0 0 0 0 0 0 0 0 0 0 0 0 0 0 0 0 0 0 0 0
0 0 0 0 0 0 0 0 0 0 0 0 0 0 0 0 0 0 0 0 0 0 0 0 0 0 0 0 0 0 0 0 0 0 0 0 0 0 0 0 0 0 0 0 0
0 0 0 0 0 0 0 0 0 0 0 0 0 0 0 0 0 0 0 0 0 0 0 0 0 0 0 0 0 0 0 0 0 0 0 0 0 0 0 0 0 0 0 0 0
0 0 0 0 0 0 0 0 0 0 0 0 0 0 0 0 0 0 0 0 0 0 0 0 0 0 0 0 0 0 0 0 0 0 0 0 0 0 0 0 0 0 0 0 0
0 0 0 0 0 0 0 0 0 0 0 0 0 0 0 0 0 0 0 0 0 0 0 0 0 0 0 0 0 0 0 0 0 0 0 0 0 0 0 0 0 0 0 0 0
0 0 0 0 0 0 0 0 0 0 0 0 0 0 0 0 0 0 0 0 0 0 0 0 0 0 0 0 0 0 0 0 0 0 0 0 0 0 0 0 0 0 0 0 0
0 0 0 0 0 0 0 0 0 0 0 0 0 0 0 0 0 0 0 0 0 0 0 0 0 0 0 0 0 0 0 0 0 0 0 0 0 0 0 0 0 0 0 0 0
0 0 0 0 0 0 0 0 0 0 0 0 0 0 0 0 0 0 0 0 0 0 0 0 0 0 0 0 0 0 0 0 0 0 0 0 0 0 0 0 0 0 0 0 0
0 0 0 0 0 0 0 0 0 0 0 0 0 0 0 0 0 0 0 0 0 0 0 0 0 0 0 0 0 0 0 0 0 0 0 0 0 0 0 0 0 0 0 0 0
0 0 0 0 0 0 0 0 0 0 0 0 0 0 0 0 0 0 0 0 0 0 0 0 0 0 0 0 0 0 0 0 0 0 0 0 0 0 0 0 0 0 0 0 0
0 0 0 0 0 0 0 0 0 0 0 0 0 0 0 0 0 0 0 0 0 0 0 0 0 0 0 0 0 0 0 0 0 0 0 0 0 0 0 0 0 0 0 0 0
0 0 0 0 0 0 0 0 0 0 0 0 0 0 0 0 0 0 0 0 0 0 0 0 0 0 0 0 0 0 0 0 0 0 0 0 0 0 0 0 0 0 0 0 0
0 0 0 0 0 0 0 0 0 0 0 0 0 0 0 0 0 0 0 0 0 0 0 0 0 0 0 0 0 0 0 0 0 0 0 0 0 0 0 0 0 0 0 0 0
0 0 0 0 0 0 0 0 0 0 0 0 0 0 0 0 0 0 0 0 0 0 0 0 0 0 0 0 0 0 0 0 0 0 0 0 0 0 0 0 0 0 0 0 0
0 0 0 0 0 0 0 0 0 0 0 0 0 0 0 0 0 0 0 0 0 0 0 0 0 0 0 0 0 0 0 0 0 0 0 0 0 0 0 0 0 0 0 0 0
0 0 0 0 0 0 0 0 0 0 0 0 0 0 0 0 0 0 0 0 0 0 0 0 0 0 0 0 0 0 0 0 0 0 0 0 0 0 0 0 0 0 0 0 0
0 0 0 0 0 0 0 0 0 0 0 0 0 0 0 0 0 0 0 0 0 0 0 0 0 0 0 0 0 0 0 0 0 0 0 0 0 0 0 0 0 0 0 0 0
0 0 0 0 0 0 0 0 0 0 0 0 0 0 0 0 0 0 0 0 0 0 0 0 0 0 0 0 0 0 0 0 0 0 0 0 0 0 0 0 0 0 0 0 0
0 0 0 0 0 0 0 0 0 0 0 0 0 0 0 0 0 0 0 0 0 0 0 0 0 0 0 0 0 0 0 0 0 0 0 0 0 0 0 0 0 0 0 0 0
Wind_Speed_500mb
22 26 29 31 32 33 33 35 38 41 42 40 21 9 16 22 21 11 20 20 22 22 21 16 16 11 4 9 7 3 8 3 7 13 7 7 7 6 7 19 11 16 22 25 37
16 20 25 27 29 31 32 33 34 36 37 35 25 6 3 10 12 19 16 16 19 22 21 22 24 12 4 6 4 8 7 10 5 9 9 8 10 24 13 16 8 22 31 35 28
14 16 18 22 25 26 29 32 33 35 37 35 25 8 2 3 2 8 12 13 18 20 24 24 26 10 5 6 7 2 6 8 7 10 12 10 8 19 25 11 32 47 48 38 30
17 19 19 19 21 24 24 28 31 35 37 34 27 8 4 1 2 6 7 8 13 16 20 20 19 8 7 6 7 4 1 6 14 12 8 10 14 11 31 14 23 36 42 41 35
21 23 24 25 24 23 22 23 26 31 35 34 30 12 9 7 8 11 8 1 8 13 17 18 19 11 2 5 11 1 4 5 9 14 19 15 9 12 27 26 30 44 43 38 32
24 26 29 30 29 28 27 24 24 27 31 33 30 15 12 8 12 13 13 12 10 12 14 14 8 12 1 1 1 7 12 20 15 15 18 13 3 1 20 35 42 46 45 39 33
26 28 31 33 35 34 31 30 27 28 30 32 24 15 17 18 16 16 14 11 10 11 9 11 9 6 5 6 9 10 13 16 6 12 10 12 7 20 25 49 52 51 47 42 34
31 32 33 34 36 38 37 34 31 31 29 29 17 15 11 15 20 20 16 12 11 12 8 10 10 2 0 4 8 9 6 9 5 10 5 13 23 15 33 61 64 58 54 50 44
34 34 36 36 36 39 37 37 33 31 29 15 16 13 10 13 23 25 20 14 14 11 8 6 8 0 2 6 9 12 6 6 17 11 7 13 18 5 38 63 53 65 61 53 44
38 38 36 37 36 37 37 38 30 22 15 15 14 9 15 11 16 25 26 21 14 10 4 1 3 5 7 8 7 8 9 10 13 7 8 10 32 12 38 62 68 68 64 58 53
41 40 39 37 35 36 37 35 10 8 12 16 16 28 14 19 18 20 22 20 16 8 5 4 7 9 18 13 6 4 7 14 18 12 8 18 31 42 40 46 48 58 71 69 63
45 42 39 36 35 30 27 14 9 11 23 31 47 50 45 30 16 26 25 18 13 12 7 8 10 9 5 9 6 7 8 16 19 6 11 20 25 36 21 31 69 72 76 82 65
49 46 41 35 32 29 22 14 12 15 10 18 26 22 15 27 17 21 31 18 9 11 11 13 5 9 7 6 7 9 11 11 16 12 10 17 13 25 9 42 44 59 70 83 80
50 52 43 34 24 20 14 8 9 12 7 14 9 6 12 12 7 20 29 14 6 19 14 11 2 10 8 10 15 11 10 7 10 10 7 8 18 9 10 25 22 45 68 82 84
51 49 48 35 14 9 7 7 7 2 6 10 6 8 13 11 5 10 20 14 12 13 12 15 15 11 12 15 16 15 4 3 4 8 8 9 9 11 5 18 32 34 69 78 89
49 46 46 35 30 26 19 10 3 8 14 9 10 9 7 6 4 9 9 7 6 7 4 12 1 11 14 4 9 9 5 6 8 5 4 10 15 8 11 15 13 13 57 74 89
46 41 39 32 21 20 19 9 4 9 5 10 11 9 8 13 9 12 11 10 15 7 11 2 9 3 6 5 4 7 10 7 10 5 15 7 8 28 20 21 16 16 44 71 88
39 30 36 32 26 16 23 5 16 15 16 4 7 5 14 15 7 10 10 10 12 6 6 9 18 17 11 13 13 11 15 11 13 7 18 2 17 12 10 17 30 35 41 58 82
32 33 37 37 28 28 22 12 19 17 14 18 6 8 11 10 12 12 18 13 19 24 20 12 14 3 4 2 5 9 10 2 5 6 6 10 16 15 9 15 8 17 43 61 85
37 32 46 35 35 31 6 36 17 19 12 7 25 21 18 14 15 15 17 10 12 28 3 12 10 2 4 3 5 7 11 8 5 4 12 14 25 31 16 21 10 14 40 59 81
34 17 18 41 42 28 19 18 18 34 22 17 17 12 17 17 17 13 15 8 12 9 6 11 8 5 7 17 21 4 7 3 6 10 12 5 27 14 16 21 22 29 53 64 87
49 10 30 63 26 18 29 15 14 18 62 17 10 19 20 20 16 14 24 23 38 27 21 14 10 11 29 0 2 5 20 26 12 13 7 8 44 12 17 17 25 39 60 69 85
36 39 22 79 20 29 9 12 35 18 23 29 26 15 13 18 10 19 20 17 42 23 23 18 9 4 10 4 4 13 14 12 3 3 40 18 39 4 6 2 32 35 53 67 81
33 11 28 65 54 28 31 23 25 35 42 21 13 19 12 17 19 14 12 12 29 29 33 43 15 18 32 20 12 12 22 22 30 19 44 55 64 82 53 48 20 36 52 64 76
47 25 32 17 44 43 17 12 47 30 28 52 31 45 32 25 32 42 30 1 7 13 11 21 34 17 48 46 10 13 33 27 36 57 34 72 62 70 60 59 38 58 62 60 75
39 26 27 28 28 49 48 68 56 26 24 29 42 24 45 53 57 35 37 19 33 5 16 8 27 22 40 21 11 20 61 38 47 52 47 65 75 76 76 81 61 44 53 60 73
76 63 42 26 27 30 54 71 61 47 49 59 45 38 46 61 74 81 61 44 28 25 23 17 14 9 45 8 10 26 52 49 55 58 46 56 77 71 54 25 22 31 51 65 74
Wind_Direction_500mb
5 7 11 13 16 16 18 17 17 19 23 24 29 54 56 50 56 63 60 56 51 38 31 23 13 3 18 41 42 39 62 116 162 155 201 200 143 149 136 143 165 185 167 174 171
352 357 358 4 8 8 7 9 7 7 11 20 19 39 58 68 58 56 66 61 49 39 32 20 8 11 42 35 28 74 96 194 215 173 182 207 191 158 160 145 118 141 161 165 173
329 338 347 350 355 1 0 359 359 356 358 2 13 1 29 265 10 47 70 56 36 25 19 6 3 10 44 6 11 128 153 181 210 196 180 212 173 176 153 232 200 185 171 175 187
312 319 326 333 340 346 353 352 353 347 350 352 354 335 313 287 234 165 92 55 26 16 6 3 5 29 45 11 352 351 72 197 175 203 203 192 175 178 189 233 239 202 187 183 190
303 310 315 319 324 329 337 341 341 336 338 340 338 322 261 265 237 202 200 302 348 357 3 7 12 9 41 320 332 149 293 287 176 198 220 209 202 210 226 233 198 185 182 185 187
301 304 308 312 315 320 324 329 328 325 324 325 327 307 248 247 228 220 228 250 302 336 355 4 1 346 331 288 344 312 289 280 273 231 215 205 200 197 203 173 175 186 190 196 203
291 297 301 306 310 315 320 323 322 314 312 313 312 291 256 263 226 221 227 232 271 313 328 346 339 345 318 341 337 324 332 328 230 200 205 181 262 235 207 187 187 194 198 199 198
290 294 297 303 309 312 317 320 321 310 304 306 290 272 251 245 221 218 220 233 260 289 285 319 318 314 251 303 12 20 52 358 311 142 203 158 262 257 213 191 198 200 197 197 200
286 289 293 299 305 308 313 315 319 304 298 282 281 242 252 241 222 220 226 245 269 267 272 284 318 12 34 66 9 15 281 271 314 207 125 187 268 259 204 199 203 207 202 200 199
281 285 289 295 300 304 312 317 316 290 278 264 254 245 238 230 219 224 229 242 250 244 270 11 44 45 29 70 252 265 289 262 239 284 205 236 267 253 217 205 214 210 208 204 206
274 278 285 289 295 304 314 337 331 281 247 235 256 253 256 233 227 222 229 231 224 199 192 38 59 249 236 208 192 207 226 245 263 233 250 236 253 269 226 217 224 218 213 209 210
270 272 276 282 289 297 311 323 312 302 299 267 257 258 249 245 253 230 214 194 177 190 133 25 234 221 164 149 185 219 270 270 281 281 188 266 250 268 190 223 220 217 213 214 208
266 266 269 275 282 288 290 278 302 323 278 279 249 251 236 223 224 211 194 191 168 160 182 175 223 121 162 185 221 221 197 245 240 330 278 312 260 243 231 241 235 227 226 224 214
268 269 267 270 288 278 260 252 306 334 40 272 238 237 199 184 252 193 190 188 185 196 166 230 226 197 198 240 159 273 209 258 288 342 260 31 292 259 238 256 224 222 219 222 215
266 268 269 265 239 246 257 283 308 337 316 263 201 182 181 186 161 192 187 191 180 181 132 239 172 193 207 219 160 224 106 227 233 254 325 218 251 254 65 269 256 220 219 216 217
264 263 263 261 254 248 252 258 173 55 248 274 164 175 150 211 213 158 175 170 112 122 319 247 237 177 216 157 166 112 42 49 52 48 314 234 195 234 194 216 254 223 216 212 214
263 258 256 248 238 233 227 180 40 181 276 230 217 170 186 194 210 181 171 176 179 149 224 251 219 246 183 136 93 98 70 325 327 352 235 166 236 256 248 247 236 236 209 216 209
273 247 251 243 227 208 177 81 216 215 222 65 134 112 190 160 237 183 164 222 234 102 117 215 284 176 182 202 183 170 166 166 245 237 285 98 242 253 239 280 279 272 247 215 204
252 244 244 240 211 197 180 213 199 186 203 168 105 176 224 221 192 161 202 205 204 171 187 173 266 156 188 136 144 171 178 168 73 91 353 247 282 288 285 283 290 219 203 207 204
240 245 240 231 199 196 170 232 208 194 145 153 199 184 199 206 172 185 182 197 227 196 164 204 282 177 128 129 32 156 156 78 18 260 265 262 278 255 246 261 185 219 209 206 203
232 242 222 212 187 190 221 226 217 231 189 177 213 231 212 184 197 206 212 243 207 143 131 139 163 205 131 206 178 129 210 134 153 166 204 292 275 192 200 215 199 215 217 210 205
213 240 196 183 185 209 228 192 224 218 229 242 208 220 187 189 205 222 215 215 183 155 168 207 162 203 217 272 321 243 203 177 189 227 247 157 261 173 188 222 186 215 219 221 214
206 218 206 184 213 216 239 246 221 195 199 214 225 190 188 194 230 196 218 200 179 161 173 175 227 284 317 31 346 224 210 216 105 142 238 212 261 118 358 181 216 225 226 226 220
193 185 196 208 225 222 221 232 227 227 237 227 215 173 168 219 221 246 225 211 207 210 216 165 194 180 231 220 130 187 215 206 206 233 247 244 260 270 268 269 236 235 241 233 225
199 216 190 204 222 222 210 234 228 225 210 211 248 228 214 234 232 239 246 245 226 231 188 177 236 198 245 254 205 222 240 188 208 229 235 260 261 265 271 271 272 257 240 214 207
206 211 188 237 195 208 220 238 239 224 194 216 228 214 224 230 224 238 226 209 223 80 177 193 238 232 254 251 206 267 259 239 233 245 253 256 265 268 268 280 276 253 217 198 200
222 224 225 215 218 197 215 232 235 228 240 234 227 226 232 232 235 239 246 246 224 200 185 169 191 156 249 114 71 274 259 242 248 245 238 250 249 261 274 244 229 229 219 207 202
Wind_Speed_850mb
22 26 29 31 32 33 33 35 38 41 42 40 21 9 16 22 21 11 20 20 22 22 21 16 16 11 4 9 7 3 8 3 7 13 7 7 7 6 7 19 11 16 22 25 37
16 20 25 27 29 31 32 33 34 36 37 35 25 6 3 10 12 19 16 16 19 22 21 22 24 12 4 6 4 8 7 10 5 9 9 8 10 24 13 16 8 22 31 35 28
14 16 18 22 25 26 29 32 33 35 37 35 25 8 2 3 2 8 12 13 18 20 24 24 26 10 5 6 7 2 6 8 7 10 12 10 8 19 25 11 32 47 48 38 30
17 19 19 19 21 24 24 28 31 35 37 34 27 8 4 1 2 6 7 8 13 16 20 20 19 8 7 6 7 4 1 6 14 12 8 10 14 11 31 14 23 36 42 41 35
21 23 24 25 24 23 22 23 26 31 35 34 30 12 9 7 8 11 8 1 8 13 17 18 19 11 2 5 11 1 4 5 9 14 19 15 9 12 27 26 30 44 43 38 32
24 26 29 30 29 28 27 24 24 27 31 33 30 15 12 8 12 13 13 12 10 12 14 14 8 12 1 1 1 7 12 20 15 15 18 13 3 1 20 35 42 46 45 39 33
26 28 31 33 35 34 31 30 27 28 30 32 24 15 17 18 16 16 14 11 10 11 9 11 9 6 5 6 9 10 13 16 6 12 10 12 7 20 25 49 52 51 47 42 34
31 32 33 34 36 38 37 34 31 31 29 29 17 15 11 15 20 20 16 12 11 12 8 10 10 2 0 4 8 9 6 9 5 10 5 13 23 15 33 61 64 58 54 50 44
34 34 36 36 36 39 37 37 33 31 29 15 16 13 10 13 23 25 20 14 14 11 8 6 8 0 2 6 9 12 6 6 17 11 7 13 18 5 38 63 53 65 61 53 44
38 38 36 37 36 37 37 38 30 22 15 15 14 9 15 11 16 25 26 21 14 10 4 1 3 5 7 8 7 8 9 10 13 7 8 10 32 12 38 62 68 68 64 58 53
41 40 39 37 35 36 37 35 10 8 12 16 16 28 14 19 18 20 22 20 16 8 5 4 7 9 18 13 6 4 7 14 18 12 8 18 31 42 40 46 48 58 71 69 63
45 42 39 36 35 30 27 14 9 11 23 31 47 50 45 30 16 26 25 18 13 12 7 8 10 9 5 9 6 7 8 16 19 6 11 20 25 36 21 31 69 72 76 82 65
49 46 41 35 32 29 22 14 12 15 10 18 26 22 15 27 17 21 31 18 9 11 11 13 5 9 7 6 7 9 11 11 16 12 10 17 13 25 9 42 44 59 70 83 80
50 52 43 34 24 20 14 8 9 12 7 14 9 6 12 12 7 20 29 14 6 19 14 11 2 10 8 10 15 11 10 7 10 10 7 8 18 9 10 25 22 45 68 82 84
51 49 48 35 14 9 7 7 7 2 6 10 6 8 13 11 5 10 20 14 12 13 12 15 15 11 12 15 16 15 4 3 4 8 8 9 9 11 5 18 32 34 69 78 89
49 46 46 35 30 26 19 10 3 8 14 9 10 9 7 6 4 9 9 7 6 7 4 12 1 11 14 4 9 9 5 6 8 5 4 10 15 8 11 15 13 13 57 74 89
46 41 39 32 21 20 19 9 4 9 5 10 11 9 8 13 9 12 11 10 15 7 11 2 9 3 6 5 4 7 10 7 10 5 15 7 8 28 20 21 16 16 44 71 88
39 30 36 32 26 16 23 5 16 15 16 4 7 5 14 15 7 10 10 10 12 6 6 9 18 17 11 13 13 11 15 11 13 7 18 2 17 12 10 17 30 35 41 58 82
32 33 37 37 28 28 22 12 19 17 14 18 6 8 11 10 12 12 18 13 19 24 20 12 14 3 4 2 5 9 10 2 5 6 6 10 16 15 9 15 8 17 43 61 85
37 32 46 35 35 31 6 36 17 19 12 7 25 21 18 14 15 15 17 10 12 28 3 12 10 2 4 3 5 7 11 8 5 4 12 14 25 31 16 21 10 14 40 59 81
34 17 18 41 42 28 19 18 18 34 22 17 17 12 17 17 17 13 15 8 12 9 6 11 8 5 7 17 21 4 7 3 6 10 12 5 27 14 16 21 22 29 53 64 87
49 10 30 63 26 18 29 15 14 18 62 17 10 19 20 20 16 14 24 23 38 27 21 14 10 11 29 0 2 5 20 26 12 13 7 8 44 12 17 17 25 39 60 69 85
36 39 22 79 20 29 9 12 35 18 23 29 26 15 13 18 10 19 20 17 42 23 23 18 9 4 10 4 4 13 14 12 3 3 40 18 39 4 6 2 32 35 53 67 81
33 11 28 65 54 28 31 23 25 35 42 21 13 19 12 17 19 14 12 12 29 29 33 43 15 18 32 20 12 12 22 22 30 19 44 55 64 82 53 48 20 36 52 64 76
47 25 32 17 44 43 17 12 47 30 28 52 31 45 32 25 32 42 30 1 7 13 11 21 34 17 48 46 10 13 33 27 36 57 34 72 62 70 60 59 38 58 62 60 75
39 26 27 28 28 49 48 68 56 26 24 29 42 24 45 53 57 35 37 19 33 5 16 8 27 22 40 21 11 20 61 38 47 52 47 65 75 76 76 81 61 44 53 60 73
76 63 42 26 27 30 54 71 61 47 49 59 45 38 46 61 74 81 61 44 28 25 23 17 14 9 45 8 10 26 52 49 55 58 46 56 77 71 54 25 22 31 51 65 74
Wind_Direction_850mb
5 7 11 13 16 16 18 17 17 19 23 24 29 54 56 50 56 63 60 56 51 38 31 23 13 3 18 41 42 39 62 116 162 155 201 200 143 149 136 143 165 185 167 174 171
352 357 358 4 8 8 7 9 7 7 11 20 19 39 58 68 58 56 66 61 49 39 32 20 8 11 42 35 28 74 96 194 215 173 182 207 191 158 160 145 118 141 161 165 173
329 338 347 350 355 1 0 359 359 356 358 2 13 1 29 265 10 47 70 56 36 25 19 6 3 10 44 6 11 128 153 181 210 196 180 212 173 176 153 232 200 185 171 175 187
312 319 326 333 340 346 353 352 353 347 350 352 354 335 313 287 234 165 92 55 26 16 6 3 5 29 45 11 352 351 72 197 175 203 203 192 175 178 189 233 239 202 187 183 190
303 310 315 319 324 329 337 341 341 336 338 340 338 322 261 265 237 202 200 302 348 357 3 7 12 9 41 320 332 149 293 287 176 198 220 209 202 210 226 233 198 185 182 185 187
301 304 308 312 315 320 324 329 328 325 324 325 327 307 248 247 228 220 228 250 302 336 355 4 1 346 331 288 344 312 289 280 273 231 215 205 200 197 203 173 175 186 190 196 203
291 297 301 306 310 315 320 323 322 314 312 313 312 291 256 263 226 221 227 232 271 313 328 346 339 345 318 341 337 324 332 328 230 200 205 181 262 235 207 187 187 194 198 199 198
290 294 297 303 309 312 317 320 321 310 304 306 290 272 251 245 221 218 220 233 260 289 285 319 318 314 251 303 12 20 52 358 311 142 203 158 262 257 213 191 198 200 197 197 200
286 289 293 299 305 308 313 315 319 304 298 282 281 242 252 241 222 220 226 245 269 267 272 284 318 12 34 66 9 15 281 271 314 207 125 187 268 259 204 199 203 207 202 200 199
281 285 289 295 300 304 312 317 316 290 278 264 254 245 238 230 219 224 229 242 250 244 270 11 44 45 29 70 252 265 289 262 239 284 205 236 267 253 217 205 214 210 208 204 206
274 278 285 289 295 304 314 337 331 281 247 235 256 253 256 233 227 222 229 231 224 199 192 38 59 249 236 208 192 207 226 245 263 233 250 236 253 269 226 217 224 218 213 209 210
270 272 276 282 289 297 311 323 312 302 299 267 257 258 249 245 253 230 214 194 177 190 133 25 234 221 164 149 185 219 270 270 281 281 188 266 250 268 190 223 220 217 213 214 208
266 266 269 275 282 288 290 278 302 323 278 279 249 251 236 223 224 211 194 191 168 160 182 175 223 121 162 185 221 221 197 245 240 330 278 312 260 243 231 241 235 227 226 224 214
268 269 267 270 288 278 260 252 306 334 40 272 238 237 199 184 252 193 190 188 185 196 166 230 226 197 198 240 159 273 209 258 288 342 260 31 292 259 238 256 224 222 219 222 215
266 268 269 265 239 246 257 283 308 337 316 263 201 182 181 186 161 192 187 191 180 181 132 239 172 193 207 219 160 224 106 227 233 254 325 218 251 254 65 269 256 220 219 216 217
264 263 263 261 254 248 252 258 173 55 248 274 164 175 150 211 213 158 175 170 112 122 319 247 237 177 216 157 166 112 42 49 52 48 314 234 195 234 194 216 254 223 216 212 214
263 258 256 248 238 233 227 180 40 181 276 230 217 170 186 194 210 181 171 176 179 149 224 251 219 246 183 136 93 98 70 325 327 352 235 166 236 256 248 247 236 236 209 216 209
273 247 251 243 227 208 177 81 216 215 222 65 134 112 190 160 237 183 164 222 234 102 117 215 284 176 182 202 183 170 166 166 245 237 285 98 242 253 239 280 279 272 247 215 204
252 244 244 240 211 197 180 213 199 186 203 168 105 176 224 221 192 161 202 205 204 171 187 173 266 156 188 136 144 171 178 168 73 91 353 247 282 288 285 283 290 219 203 207 204
240 245 240 231 199 196 170 232 208 194 145 153 199 184 199 206 172 185 182 197 227 196 164 204 282 177 128 129 32 156 156 78 18 260 265 262 278 255 246 261 185 219 209 206 203
232 242 222 212 187 190 221 226 217 231 189 177 213 231 212 184 197 206 212 243 207 143 131 139 163 205 131 206 178 129 210 134 153 166 204 292 275 192 200 215 199 215 217 210 205
213 240 196 183 185 209 228 192 224 218 229 242 208 220 187 189 205 222 215 215 183 155 168 207 162 203 217 272 321 243 203 177 189 227 247 157 261 173 188 222 186 215 219 221 214
206 218 206 184 213 216 239 246 221 195 199 214 225 190 188 194 230 196 218 200 179 161 173 175 227 284 317 31 346 224 210 216 105 142 238 212 261 118 358 181 216 225 226 226 220
193 185 196 208 225 222 221 232 227 227 237 227 215 173 168 219 221 246 225 211 207 210 216 165 194 180 231 220 130 187 215 206 206 233 247 244 260 270 268 269 236 235 241 233 225
199 216 190 204 222 222 210 234 228 225 210 211 248 228 214 234 232 239 246 245 226 231 188 177 236 198 245 254 205 222 240 188 208 229 235 260 261 265 271 271 272 257 240 214 207
206 211 188 237 195 208 220 238 239 224 194 216 228 214 224 230 224 238 226 209 223 80 177 193 238 232 254 251 206 267 259 239 233 245 253 256 265 268 268 280 276 253 217 198 200
222 224 225 215 218 197 215 232 235 228 240 234 227 226 232 232 235 239 246 246 224 200 185 169 191 156 249 114 71 274 259 242 248 245 238 250 249 261 274 244 229 229 219 207 202